Погода Грозный

Погода Грозный : погода сейчас, прогноз погоды и архив. Всё, что Вы хотите узнать о погоде Грозный!

Поиск расширенной информации на нашем сайте:

Другие новости

Новости СМИ2

Главная страница сайта

Новости сайта

03.07.2017

Напоминаем, что на нашем специализированном сайте Метеоцентр.Азия вы можете получить высокодетализированные автоматические прогнозы погоды по пунктам России, СНГ и мира в авиационном формате (включающие направление и скорость ветра, видимость, явления погоды, количество и форму облачности, нижнюю и верхнюю границу облачности).

Рекомендуем: Наружные отопительные котлы - газовые котлы будерус.

Погода Грозный - сегодня

Время (UTC), дата Ветер
(°,м/с) 
Видим.   Явления Облачность Т
(°С)
Тd
(°С)
f(%) Тe
(°С)
Pmin
(гПа)
dP
(гПа)
Po
(мм)
O2
(г/м3)
Тmin Tmax R s Состояние
почвы
00 18.08.17 080 (В) 10 км    10/10 600 м 
[Sc]
+21 +19.3 90 +39  1010.3  -0.2  735  271           
03 18.08.17 тихо ()   20000 м    10/10 1000 м 
[Sc]
+20.5 +19.3 93 +38  1011  0.7  736  271  +20.1        сухая 
06 18.08.17 тихо ()   20000 м    10/10 1000 м 
[Sc]
+22.6 +19.7 84 +41  1011.6  0.8  737  269           
09 18.08.17 020 (С) 20000 м  {ливн. осадки}  10/10 1000 м 
[Sc]
+24.3 +19.9 76 +43  1012.4  0.8  737  268           
12 18.08.17 200 (Ю) 20000 м  в посл. час ливневой дождь  10/10 600 м 
[Sc]
+22.8 +21 90 +44  1013.9  1.4  738  269           
15 18.08.17 060 (СВ) 20000 м    10/10 600 м 
[Frnb]
+21 +18.1 84 +36  1015.7  1.5  739  272    +24.3     
18 18.08.17 070 (В) 10 км    10/10 600 м 
[Sc]
+20.2 +15.8 76 +31  1016.3  0.5  740  274           
21 18.08.17 тихо ()   10 км    9/4 600 м средняя 
[Sc|Ac lent]
+19 +17.6 92 +33  1015.6  -0.7  739  274           
00 19.08.17 тихо ()   10 км    ясно 
+17.8 +17.1 96 +31  1015.3  -0.4  739  276           
03 19.08.17 тихо ()   20000 м    ясно 
+16.8 +16.1 96 +28  1016.3  0.8  740  277  +16.6        влажная 
06 19.08.17 250 (З) 20000 м    3/0 средняя 
[Ac lent]
+22.8 +16.9 69 +35  1016  0.3  740  271           
09 19.08.17 070 (В) 20000 м    10/10 1000 м 
[Sc]
+24.6 +16.3 60 +36  1015.6  -0.3  740  270           
12 19.08.17 230 (ЮЗ) 20000 м    9/4 1000 м средняя 
[Sc|Ac lent]
+26.4 +16.5 55 +38  1015.1  -0.3  739  268           
15 19.08.17 210 (ЮЗ) 20000 м    8/0 средняя 
[Ac lent]
+23.7 +18.3 72 +39  1015.5  0.1  739  270    +27.8       
18 19.08.17 100 (В) 10 км    8/0 средняя 
[Ac lent]
+20.4 +17.7 84 +35  1016  0.2  740  273           
21 19.08.17 190 (Ю) 10 км    3/0 средняя 
[Ac lent]
+19.8 +17.8 88 +35  1015.9  -0.1  740  274           
00 20.08.17 090 (В) 10 км    8/0 средняя 
[Ac lent]
+17.7 +16.8 94 +31  1014.6  -1.5  738  276           
03 20.08.17 тихо ()   20000 м    3/0 средняя 
[Ac lent]
+17.8 +17 95 +31  1014.7  0.1  738  275  +17.4        сухая 
06 20.08.17 210 (ЮЗ) 20000 м    3/0 средняя 
[Ac lent]
+22.7 +18.2 76 +38  1014.4  0.2  739  271           
09 20.08.17 060 (СВ) 20000 м    ясно 
+28.8 +16 46 +40  1012.3  -1.5  737  265           
12 20.08.17 060 (СВ) 20000 м    ясно 
+30.2 +16.4 43 +42  1011.6  -0.6  737  264           
15 20.08.17 070 (В) 20000 м    8/8 1000 м 
[Sc]
+28.6 +17.8 52 +43  1011  -0.6  737  265    +31       
18 20.08.17 тихо ()   10 км    8/5 600 м средняя 
[Sc|Ac lent]
+24.3 +18.8 71 +41  1012.8  1.2  737  268           
21 20.08.17 тихо ()   10 км    4/0 средняя 
[Ac lent]
+22.7 +18.8 79 +39  1013.1  0.2  738  270           
00 21.08.17 090 (В) 10 км    3/0 средняя 
[Ac lent]
+21.5 +20 91 +41  1011.9  -1.2  737  270           
Время (UTC), дата Ветер
(°,м/с) 
Видим.   Явления Облачность Т
(°С)
Тd
(°С)
f(%) Тe
(°С)
Pmin
(гПа)
dP
(гПа)
Po
(мм)
O2
(г/м3)
Тmin Tmax R s Состояние
почвы

Для получения пояснительной информации подведите курсор к названию столбца.

ПОГОДА Грозный - архив

Всё, что Вы хотите узнать о погоде Грозный - удобно и подробно!

Выберите нужную дату (начиная с 1 января 2015* года) и нажмите кнопку "Найти".
Будут отображены архивные сводки погоды по пункту Грозный, начиная с указанной даты.


Отображать данные в формате CSV (для использования в таблицах Excel)


Внимание! Наш архив погоды предназначен исключительно для личного некоммерческого использования в познавательных целях. Если Вам необходимы официальные справки о состоянии погоды (для производственных, юридических, коммерческих и т.п. целей), обращайтесь в органы Росгидромета.

*Примечание: данная дата относится к архиву по метеостанциям СССР (Россия, СНГ, Балтия).
Архив по метеостанциям Зарубежной Европы и Азии (кроме Китая) хранится 10 дней, по другим регионам земного шара (Китай, Африка, Америка, Австралия, Океания) - 1 день.

Грозный - район местоположения метеостанции


Название, широта, долгота, высота метеостанции:
Грозный 43.3°ш. 45.7°д. 163 м над ур. моря [Российская Федерация]

Дополнительная информация

В oтличие oт бoльшинства пoгoдных сайтoв мы публикуем пoдрoбную метеoинфoрмацию в детальнoм прoфессиoнальнoм фoрмате.

Характеристики температуры и влажнoсти вoздуха измеряются на высoте 2 м в тени вдали oт зданий и деревьев.
Скoрoсть ветра измеряется на высoте 10 м (на урoвне рoста челoвека скoрoсть ветра ниже в 1.5-2 раза). Если метеoстанция нахoдится в гoрoде или в лесу, тo скoрoсть ветра занижена на 2-4 м/с пo сравнению с oткрытым местoм. Скoрoсть ветра над акватoриями крупных рек и oзёр, а также на вершинах хoлмoв на 2-5 м/с выше, чем в oбычных услoвиях.
Атмoсфернoе давление в разных тoчках местнoсти мoжет значительнo oтличаться oт давления на метеoстанции, в зависимoсти oт услoвий рельефа (при пoдъёме на 10 м давление пoнижается примернo на 1 мм рт.ст.).